Starlink 31203

operational
NORAD ID: 58869 Int'l Des: 2024-019 Owner: SPXS Country: US Constellation: starlink
LEOCIRCULAR

关于 Starlink 31203

正在加载描述...

实时位置

正在加载3D地球...

即将过境

高度历史

Altitude vs Time

uPlot chart will show altitude changes over time

两行轨道根数

1 58869U 24019S 25306.11778616 .00009658 00000-0 36002-3 0 9997
2 58869 43.0010 245.7451 0001509 273.7820 86.2859 15.27580685 99618
Epoch: Nov 2, 2025 • Age: 42 hours

当前状态

高度 489.2 km
速度 7.62 km/s
星下点 -27.65°S, 156.68°W
发射日期 Jan 29, 2024
运行时间 1.7 years
类型 internet

技术详情

分类 Payload
质量 730.00 kg
干质量 700.00 kg
总质量 730.00 kg
长度 0.30 m
直径 4.10 m
跨度 29.00 m
形状 Box + pan
制造商 SPXS
平台类型 Starlink V2M
阶段状态 In Orbit
所有者/国家 SPXS/US

大型星座

Loading constellations...